Dodge City, KS

1:37 AM CST on December 11, 2016 (GMT -0600)
Dodge City Regional

Weather History for KDDC - January, 2013

Change the Weather History Date:

Saturday, January 26, 2013

  Actual Average Record
Temperature  
Mean Temperature 40 °F -  
Max Temperature 53 °F 43 °F 78 °F (1951)
Min Temperature 27 °F 20 °F -8 °F (1902)
Degree Days  
Heating Degree Days 25    
Moisture  
Dew Point 28 °F    
Average Humidity 62    
Maximum Humidity 79    
Minimum Humidity 30    
Precipitation  
Precipitation 0.00 in - - ()
Sea Level Pressure  
Sea Level Pressure 30.05 in    
Wind  
Wind Speed 13 mph (South)    
Max Wind Speed 20 mph    
Max Gust Speed 26 mph    
Visibility 8 miles    
Events      
Averages and records for this station are not official NWS values.
T = Trace of Precipitation, MM = Missing Value Source: NWS Daily Summary

Daily Weather History Graph

Daily Weather History Graph

Search for Another Location

Airport or City:

Trip Planner

Search our weather history database for the weather conditions in past years. The results will help you decide how hot, cold, wet, or windy it might be!

Date:

Astronomy

Jan. 26, 2013 Rise Set
Actual Time 7:48 AM CST 5:57 PM CST
Civil Twilight 7:20 AM CST 6:25 PM CST
Nautical Twilight 6:48 AM CST 6:56 PM CST
Astronomical Twilight 6:17 AM CST 7:27 PM CST
Moon 5:52 PM CST (1/26) 7:07 AM CST (1/26)
Length of Visible Light 11h 04m
Length of Day
10h 08m
Full, 100% of the Moon is Illuminated
Jan 26
Full
Jan 26
Full
Feb 3
Last Quarter
Feb 10
New
Feb 17
First Quarter

Hourly Weather History & Observations

Time (CST) Temp. Windchill Dew Point Humidity Pressure Visibility Wind Dir Wind Speed Gust Speed Precip Events Conditions
12:52 AM 33.1 °F 24.4 °F 24.1 °F 70% 30.17 in 10.0 mi South 11.5 mph - N/A   Partly Cloudy
1:52 AM 34.0 °F 25.5 °F 24.1 °F 67% 30.16 in 10.0 mi South 11.5 mph - N/A   Clear
2:52 AM 30.9 °F 22.8 °F 23.0 °F 72% 30.14 in 9.0 mi South 9.2 mph - N/A   Clear
3:52 AM 28.0 °F 20.0 °F 21.9 °F 78% 30.14 in 8.0 mi South 8.1 mph - N/A   Clear
4:52 AM 28.9 °F 19.2 °F 21.9 °F 75% 30.13 in 8.0 mi South 11.5 mph - N/A   Clear
5:52 AM 28.9 °F 19.8 °F 23.0 °F 78% 30.13 in 8.0 mi South 10.4 mph - N/A   Clear
6:52 AM 30.9 °F 23.5 °F 24.1 °F 76% 30.13 in 8.0 mi South 8.1 mph - N/A   Clear
7:52 AM 28.0 °F 19.3 °F 21.9 °F 78% 30.16 in 7.0 mi South 9.2 mph - N/A   Clear
8:52 AM 33.1 °F 24.4 °F 24.1 °F 70% 30.16 in 7.0 mi South 11.5 mph - N/A   Clear
9:52 AM 39.0 °F 29.3 °F 25.0 °F 57% 30.14 in 8.0 mi South 19.6 mph - N/A   Clear
10:52 AM 44.1 °F 36.5 °F 25.0 °F 47% 30.13 in 9.0 mi South 17.3 mph - N/A   Clear
11:52 AM 48.0 °F - 27.0 °F 44% 30.09 in 10.0 mi South 19.6 mph 26.5 mph N/A   Clear
12:52 PM 51.1 °F - 30.0 °F 44% 30.05 in 10.0 mi South 17.3 mph - N/A   Clear
1:52 PM 51.1 °F - 30.0 °F 44% 30.02 in 9.0 mi South 19.6 mph - N/A   Clear
2:52 PM 52.0 °F - 30.0 °F 43% 29.99 in 9.0 mi SSE 17.3 mph - N/A   Clear
3:52 PM 51.1 °F - 32.0 °F 48% 29.99 in 9.0 mi SSE 17.3 mph - N/A   Clear
4:52 PM 48.9 °F - 32.0 °F 52% 29.97 in 9.0 mi SSE 15.0 mph 24.2 mph N/A   Clear
5:52 PM 46.0 °F 39.0 °F 34.0 °F 63% 29.96 in 7.0 mi SSE 17.3 mph - N/A   Mostly Cloudy
6:52 PM 45.0 °F 37.9 °F 34.0 °F 65% 29.96 in 9.0 mi SSE 16.1 mph 25.3 mph 0.00 in   Overcast
7:52 PM 43.0 °F 34.8 °F 34.0 °F 71% 29.96 in 8.0 mi SSE 18.4 mph - 0.00 in   Overcast
8:52 PM 42.1 °F 33.3 °F 36.0 °F 79% 29.93 in 7.0 mi SSE 19.6 mph - 0.00 in   Overcast
9:52 PM 42.1 °F 33.9 °F 34.0 °F 73% 29.91 in 9.0 mi SSE 17.3 mph - N/A   Mostly Cloudy
10:52 PM 42.1 °F 33.6 °F 33.1 °F 70% 29.89 in 9.0 mi SSE 18.4 mph - N/A   Mostly Cloudy
11:52 PM 41.0 °F 32.2 °F 34.0 °F 76% 29.88 in 8.0 mi SSE 18.4 mph - N/A   Clear